Tracking 31027 objects as of 19-Jul-2025
HD Live streaming from Space Station
objects crossing your sky now

STARLINK-30095

Track STARLINK-30095 now!
10-day predictions
STARLINK-30095 is classified as:


NORAD ID: 56289
Int'l Code: 2023-056D
Perigee: 565.6 km
Apogee: 566.9 km
Inclination: 43.0 °
Period: 95.8 minutes
Semi major axis: 6937 km
RCS: Unknown
Launch date: April 19, 2023
Source: United States (US)
Launch site: AIR FORCE EASTERN TEST RANGE (AFETR)
Your satellite tracking list
COSMOS 628
Track 1 satellite(s)




NASA's NSSDC Master Catalog

Two Line Element Set (TLE):
1 56289U 23056D   25199.82932834  .00000232  00000-0  32225-4 0  9996
2 56289  43.0038  14.9976 0000977 255.3292 104.7442 15.02525839125142
Source of the keplerian elements: AFSPC